Temperature
17 17 17 17 17 17 17 17 17 17 17 17 17 17 17 17 17 17 17 16 16 16 16 16 16 16 16 16 16 16 16 16 15 15 15 15 15 15 15 15 15 15 15
17 17 17 17 17 17 17 17 17 17 17 17 17 17 16 16 16 16 16 16 16 16 16 16 16 16 16 16 16 16 16 16 16 15 15 15 15 15 15 15 15 15 15
17 17 17 17 17 17 17 17 17 17 17 17 16 16 16 16 16 16 16 16 16 16 16 16 16 16 16 16 16 16 16 16 16 15 15 14 15 15 15 15 15 15 15
16 16 16 16 16 16 17 17 17 17 17 16 16 16 16 16 16 16 16 16 16 16 16 16 16 16 16 16 16 16 16 16 15 15 14 14 14 15 15 15 15 15 15
16 16 16 16 16 16 16 16 16 16 16 16 16 16 16 16 16 16 16 16 16 16 16 16 16 16 15 15 15 16 15 15 15 15 14 14 14 14 14 14 14 14 14
16 15 16 16 16 16 16 16 16 16 16 16 16 16 16 16 16 16 16 16 15 15 15 15 15 15 15 15 15 15 15 15 15 14 14 14 14 14 14 14 14 14 14
15 15 16 16 16 16 16 16 16 16 16 16 16 16 16 16 16 16 16 16 15 15 15 15 15 15 15 15 15 15 15 15 14 14 14 14 14 14 14 14 14 14 14
15 15 15 16 16 16 16 16 16 16 16 16 16 16 16 16 16 15 15 15 15 15 15 15 15 15 15 15 15 15 15 15 14 14 14 14 14 14 14 14 14 13 13
15 15 15 15 15 15 15 15 16 16 16 16 16 15 15 15 15 15 15 15 15 15 15 15 15 15 15 15 15 15 15 14 14 13 13 13 14 14 14 14 13 13 13
15 15 15 15 15 15 15 15 15 15 15 15 15 15 15 15 15 15 15 15 15 15 15 15 15 15 14 14 14 14 14 14 13 13 13 13 14 13 13 13 13 13 13
15 15 15 15 15 15 15 15 15 15 15 15 15 15 15 15 15 14 14 14 14 14 14 14 14 14 14 14 14 14 14 13 13 13 13 13 13 13 13 13 13 13 13
14 14 15 15 15 15 14 14 15 15 15 15 15 15 15 14 14 14 14 14 14 14 14 14 14 14 14 13 13 13 13 13 13 13 13 13 13 13 13 13 13 12 12
14 14 14 14 14 14 14 14 14 15 15 14 15 14 14 14 14 14 14 14 14 14 14 14 13 13 13 13 13 13 12 12 12 12 12 13 12 12 12 12 12 12 12
14 14 14 14 14 14 14 14 14 14 14 14 14 14 14 14 14 14 14 14 13 13 13 13 13 13 13 13 12 12 12 12 12 12 12 12 12 12 12 12 12 12 12
14 14 14 14 14 14 14 14 14 14 14 14 14 14 14 14 14 14 13 13 13 13 13 13 13 13 13 12 12 12 12 12 12 12 12 12 12 12 12 12 12 12 11
13 14 14 14 13 14 14 14 14 14 14 14 14 14 14 13 13 13 13 13 13 13 13 13 12 12 12 12 12 12 12 12 12 11 11 11 11 11 11 11 11 11 11
13 13 13 13 13 13 13 13 13 13 13 13 13 13 13 13 13 13 13 13 13 12 12 12 12 12 12 12 12 12 12 11 11 11 11 11 11 11 11 11 11 11 11
13 13 13 13 13 13 13 13 13 13 13 13 13 13 13 13 13 12 12 12 12 12 12 12 12 11 11 11 11 11 11 11 11 11 11 10 10 10 10 10 10 10 10
12 12 13 13 13 13 13 13 13 13 13 13 13 13 13 12 12 12 12 12 12 12 11 11 11 11 11 11 11 11 11 11 10 10 10 10 10 10 10 10 10 10 10
12 12 12 12 12 12 12 12 12 12 12 12 12 12 12 12 12 12 12 11 11 11 11 11 10 10 10 10 10 10 10 10 10 10 10 9 9 10 10 9 9 9 9
12 12 12 12 12 12 12 12 12 12 12 12 12 12 11 11 11 11 11 11 11 11 10 10 10 10 10 10 10 9 9 9 9 9 9 9 9 9 9 9 9 9 9
11 12 12 12 12 12 12 12 12 12 12 11 11 11 11 11 11 11 11 10 10 10 10 10 10 9 9 9 9 8 8 8 9 9 9 9 8 8 8 8 8 8 8
11 11 12 12 12 12 11 11 11 11 11 11 11 11 11 10 10 10 10 10 10 10 10 10 9 9 9 8 8 8 8 8 8 8 8 8 8 8 7 7 7 8 8
11 11 11 11 11 11 11 11 11 11 11 11 11 10 10 10 10 10 10 9 9 9 9 9 9 9 8 8 8 8 7 7 7 7 7 7 7 7 7 7 7 7 7
11 11 11 11 11 11 11 11 11 10 10 10 10 10 10 9 9 9 9 9 9 9 9 9 8 8 8 8 7 7 7 7 6 6 6 6 7 7 6 6 6 6 6
10 10 10 10 10 10 10 10 10 10 10 10 10 10 9 9 9 9 9 9 8 8 8 8 8 8 8 7 7 7 7 6 6 6 5 6 6 6 6 6 6 6 6
Wind_Speed
10 13 14 15 15 15 15 15 16 16 16 15 15 15 15 15 15 14 14 14 13 13 13 13 13 13 13 13 13 13 13 12 12 12 11 11 11 11 10 9 7 9 10
13 15 16 15 16 15 15 16 16 16 16 16 16 15 15 15 15 14 14 14 13 13 13 13 13 14 14 13 13 12 12 12 12 11 10 10 10 10 10 10 9 9 9
14 16 17 16 16 16 16 16 16 16 16 16 16 15 15 15 14 14 14 14 13 13 13 13 14 13 13 13 13 12 11 11 10 8 6 8 9 10 10 10 10 9 9
15 15 16 17 16 16 16 16 16 16 15 15 15 15 14 14 14 14 14 14 13 13 13 13 13 13 12 12 12 11 11 10 9 4 5 7 7 9 8 8 8 8 8
14 14 16 17 17 17 17 16 16 16 15 15 15 15 14 14 13 13 13 13 13 13 13 13 12 12 11 11 10 10 9 9 6 5 6 6 6 7 6 7 6 6 6
14 14 17 16 17 17 16 16 16 15 15 15 15 14 14 13 13 13 13 13 12 12 12 11 11 10 10 10 9 9 8 6 4 5 5 5 5 6 5 5 5 5 4
14 14 17 16 16 16 16 15 15 15 15 15 14 14 13 13 13 13 12 12 11 11 11 10 9 9 9 8 8 8 7 4 4 4 4 5 6 6 4 4 3 4 4
13 13 16 15 16 16 16 15 15 15 14 14 13 13 13 13 12 12 11 11 11 10 10 9 9 8 8 7 7 7 5 3 3 3 3 4 6 5 4 4 4 3 3
13 12 13 15 15 15 15 15 15 14 14 14 13 13 13 12 12 11 11 10 10 9 9 9 8 8 7 7 7 6 5 2 2 2 3 3 4 4 3 3 3 3 4
11 11 12 12 13 13 14 14 14 14 14 14 13 13 12 11 11 11 10 10 9 9 8 7 7 7 7 6 6 5 3 1 2 2 2 4 4 3 3 3 3 4 4
10 10 10 11 11 11 12 13 13 13 13 12 11 12 10 9 9 8 9 9 9 8 7 7 6 6 5 5 4 3 1 1 2 2 2 4 3 3 3 4 5 5 5
11 10 9 10 10 10 10 10 9 9 9 8 8 9 7 7 7 7 9 9 8 7 6 6 5 4 2 2 3 2 1 0 1 1 2 3 3 3 4 5 5 6 6
11 9 8 9 9 9 8 7 7 7 7 7 7 7 6 6 6 5 5 5 5 4 4 4 3 2 1 1 1 0 1 1 0 1 1 2 3 4 5 6 6 6 7
10 9 8 8 8 8 8 7 6 6 6 5 6 6 5 4 4 4 3 3 3 2 2 2 1 1 1 0 0 0 1 1 1 1 2 2 4 5 6 6 7 7 8
11 9 8 8 8 8 7 6 6 6 6 6 5 5 5 4 4 3 3 3 2 2 1 1 0 0 0 0 1 1 1 2 2 2 1 2 4 5 5 7 7 8 9
11 10 9 8 8 8 6 6 5 6 6 6 5 5 5 4 4 3 3 2 2 1 1 0 0 1 1 1 1 2 2 2 2 2 2 2 2 4 6 7 8 9 10
11 10 9 8 8 8 7 6 6 6 6 5 5 5 5 4 4 3 2 2 2 1 1 0 0 1 1 1 2 2 2 2 2 3 3 3 3 3 4 6 8 9 10
10 10 9 7 8 8 7 6 5 6 6 5 5 5 5 4 4 3 2 2 1 1 1 1 1 1 1 2 2 2 2 2 3 3 3 3 4 4 4 5 7 9 10
10 10 9 8 8 7 7 6 6 5 5 5 5 4 4 4 3 3 2 2 1 1 1 1 1 1 2 2 3 3 3 2 3 3 3 4 4 4 5 5 6 7 9
9 9 10 9 8 8 6 5 5 4 4 4 4 4 4 4 3 3 2 2 2 1 1 1 1 1 2 2 3 3 3 3 3 3 4 4 4 5 6 6 6 6 7
9 10 10 10 9 8 6 6 5 5 4 3 3 3 4 3 3 3 2 2 2 1 2 2 1 1 1 2 2 3 3 4 3 3 4 4 4 5 6 6 6 7 7
10 11 10 10 10 9 7 6 4 4 3 3 3 3 3 3 3 2 2 2 2 2 2 2 2 2 1 1 2 3 3 3 3 3 4 4 5 5 5 6 7 7 8
10 11 10 10 10 10 8 6 5 4 3 3 3 3 3 2 2 2 2 2 2 2 2 2 2 3 2 2 2 2 3 3 4 3 4 5 5 5 5 6 7 8 8
9 8 9 10 10 10 9 8 9 6 5 5 4 3 3 3 3 2 2 2 2 2 2 2 3 3 3 3 2 3 4 4 4 4 4 4 6 6 6 6 6 7 8
7 7 8 9 9 9 9 9 9 7 5 4 4 4 3 3 3 2 2 2 2 2 2 2 3 3 3 3 3 3 3 4 5 5 6 6 6 5 6 6 6 6 8
6 7 7 9 9 9 9 9 9 8 6 6 6 5 4 2 2 2 2 2 2 1 2 2 3 4 4 4 4 4 4 4 4 5 6 8 7 6 6 6 6 6 7
Wind_Direction
155 149 139 138 133 130 127 125 125 126 125 123 121 118 115 114 112 110 109 107 104 102 100 99 96 95 94 91 88 84 83 81 79 79 78 77 77 77 75 70 70 76 71
149 146 139 138 136 132 129 126 126 126 124 122 120 118 116 113 111 109 108 107 103 101 98 97 97 94 92 90 88 86 85 83 80 80 82 84 80 77 75 69 57 65 67
146 144 142 139 136 132 128 126 127 127 125 122 120 118 117 115 114 111 108 106 102 99 96 94 95 93 91 89 87 85 85 84 83 83 89 86 85 79 79 75 70 68 65
144 144 144 138 136 132 129 127 127 127 124 122 121 118 117 116 114 112 108 105 102 98 96 95 94 92 91 90 89 87 85 82 81 85 85 79 82 79 77 75 69 65 60
143 144 138 138 136 133 131 129 128 126 125 123 121 119 117 115 113 111 109 105 102 100 98 96 94 94 92 91 90 89 86 84 84 82 77 74 77 77 72 70 66 60 54
143 142 138 138 136 133 131 131 129 128 126 125 123 121 118 117 114 111 109 107 104 102 100 97 95 95 94 91 90 89 87 87 102 81 74 70 72 73 68 67 63 56 48
142 139 139 136 134 133 131 131 130 129 127 126 124 122 121 118 115 113 112 110 108 105 103 101 98 94 94 93 90 87 87 79 81 83 73 66 60 56 53 54 50 43 32
142 139 138 131 130 131 129 128 128 127 126 126 125 124 122 120 117 114 113 113 111 108 105 104 103 99 96 93 90 89 83 71 89 78 70 66 55 47 44 38 31 23 9
142 141 140 141 135 129 127 127 126 125 124 123 122 121 121 120 119 116 114 113 111 109 108 105 103 102 98 93 90 90 85 55 66 69 62 57 52 35 23 14 6 358 352
142 142 142 142 141 138 132 124 122 123 122 120 118 118 119 120 119 118 118 114 112 109 108 105 103 102 101 98 95 95 98 139 72 66 55 57 46 18 0 354 347 341 334
145 146 145 143 141 138 134 128 125 123 122 123 122 121 127 129 126 123 112 113 112 110 108 106 104 103 109 108 101 108 147 91 69 46 45 44 25 1 346 338 332 326 322
154 151 151 147 143 140 135 137 135 131 132 133 134 136 135 128 120 116 109 108 109 112 113 109 112 122 139 125 124 166 157 66 32 46 45 31 356 344 335 327 322 319 314
157 151 151 148 146 143 138 138 133 132 132 132 133 137 133 128 126 125 126 124 124 129 126 126 142 125 117 94 114 141 356 337 327 356 32 19 336 327 326 324 320 316 310
160 156 153 150 149 146 142 139 139 137 138 135 137 139 138 131 130 128 128 126 133 132 125 131 122 116 128 140 180 281 270 294 307 330 15 10 328 319 319 318 315 312 309
165 160 156 153 153 149 144 142 143 143 142 139 137 140 141 139 134 130 130 133 131 130 141 135 142 107 266 301 285 280 284 288 297 300 327 6 330 326 321 321 320 314 313
171 166 160 156 153 153 153 151 146 145 141 143 143 146 147 142 140 142 136 132 135 138 148 191 266 275 292 295 291 288 289 290 288 297 300 324 338 331 326 324 323 320 317
175 169 164 159 157 157 155 152 148 149 147 145 146 152 151 147 148 149 146 143 141 153 165 213 247 277 291 285 282 288 291 286 281 296 297 299 310 320 318 320 325 325 323
175 169 165 162 163 162 156 153 150 153 151 150 152 155 155 153 155 155 154 146 147 162 183 220 261 271 281 286 289 290 285 279 271 288 288 292 302 311 319 324 326 325 324
177 171 167 167 165 162 156 152 150 149 149 151 155 156 157 159 161 160 156 151 165 174 195 230 263 279 286 297 298 296 294 284 279 279 282 287 294 301 307 316 315 314 317
180 176 173 171 168 160 154 150 145 145 147 151 154 153 159 164 169 168 164 167 181 198 214 231 252 275 292 303 299 293 284 273 270 281 285 287 295 301 302 306 307 305 308
181 180 179 176 171 166 162 163 165 168 162 157 152 157 164 165 173 179 179 180 196 218 235 243 247 252 285 304 290 294 280 261 265 277 279 289 297 302 303 304 306 307 306
187 186 184 182 177 176 174 168 166 159 164 160 156 158 160 161 168 184 193 201 208 220 227 232 232 245 263 272 284 291 288 271 264 274 275 284 292 297 298 302 305 304 306
191 190 188 185 181 179 172 158 143 137 141 163 171 171 174 175 177 191 208 214 217 225 229 229 231 236 246 251 269 279 286 285 302 273 277 281 289 295 297 299 299 303 305
192 189 189 184 181 178 173 172 171 177 184 190 183 178 177 181 186 190 202 219 224 229 231 232 234 242 242 245 256 266 277 292 287 290 286 289 294 294 297 298 299 303 305
189 186 185 181 179 177 179 180 184 189 187 173 170 175 179 179 184 186 196 212 234 242 239 237 236 238 239 245 250 263 266 273 272 278 289 300 298 297 303 302 299 302 306
180 179 179 178 179 178 180 183 189 188 181 173 178 180 183 182 183 184 197 209 226 247 253 251 245 241 243 248 251 252 259 263 273 276 284 298 300 303 306 301 295 298 303
Height
1524 1526 1528 1531 1533 1534 1536 1537 1539 1540 1541 1542 1543 1543 1544 1545 1545 1546 1547 1547 1547 1547 1547 1548 1548 1548 1548 1548 1547 1547 1547 1547 1547 1547 1547 1547 1546 1546 1546 1545 1545 1545 1544
1523 1526 1529 1531 1533 1535 1537 1538 1540 1541 1542 1543 1544 1545 1545 1546 1547 1547 1548 1548 1548 1549 1549 1549 1549 1549 1549 1549 1549 1549 1549 1548 1548 1548 1548 1548 1548 1547 1547 1546 1546 1546 1545
1524 1526 1529 1532 1534 1536 1538 1539 1541 1542 1543 1544 1545 1546 1547 1547 1548 1549 1549 1549 1550 1550 1550 1550 1550 1550 1550 1550 1550 1550 1550 1550 1549 1549 1549 1550 1549 1548 1548 1547 1547 1546 1546
1524 1527 1529 1532 1535 1537 1539 1540 1542 1543 1544 1545 1546 1547 1548 1548 1549 1550 1550 1550 1551 1551 1551 1551 1551 1551 1551 1551 1551 1551 1551 1551 1550 1550 1551 1551 1550 1549 1549 1548 1548 1547 1547
1525 1528 1530 1533 1535 1537 1539 1541 1542 1544 1545 1546 1547 1548 1549 1549 1550 1551 1551 1551 1552 1552 1552 1552 1552 1552 1552 1552 1552 1551 1551 1551 1551 1551 1551 1551 1551 1550 1549 1549 1548 1547 1547
1526 1528 1530 1533 1536 1538 1540 1542 1543 1544 1546 1547 1548 1549 1550 1550 1551 1551 1552 1552 1552 1553 1553 1553 1553 1553 1552 1552 1552 1552 1552 1552 1552 1552 1552 1551 1551 1550 1549 1549 1548 1548 1547
1526 1529 1531 1534 1536 1539 1540 1542 1544 1545 1546 1548 1549 1549 1550 1551 1551 1552 1552 1553 1553 1553 1553 1553 1553 1553 1553 1553 1552 1552 1552 1552 1552 1552 1551 1551 1551 1550 1549 1549 1548 1548 1547
1526 1529 1531 1534 1536 1539 1541 1542 1544 1546 1547 1548 1549 1550 1550 1551 1552 1552 1552 1553 1553 1553 1553 1553 1553 1553 1553 1552 1552 1552 1552 1552 1552 1552 1551 1551 1550 1549 1549 1548 1548 1547 1546
1527 1529 1532 1534 1537 1539 1541 1543 1544 1546 1547 1548 1549 1550 1551 1551 1552 1552 1553 1553 1553 1553 1553 1553 1553 1553 1553 1552 1552 1552 1551 1551 1552 1551 1551 1550 1549 1549 1548 1548 1547 1546 1545
1526 1529 1532 1534 1536 1539 1541 1543 1544 1546 1547 1548 1549 1550 1551 1552 1552 1552 1553 1553 1553 1553 1553 1553 1553 1553 1552 1552 1552 1551 1551 1551 1551 1551 1550 1549 1548 1548 1547 1547 1546 1545 1544
1526 1528 1531 1534 1536 1538 1540 1542 1544 1546 1547 1548 1549 1550 1551 1552 1552 1552 1553 1553 1553 1553 1553 1553 1553 1552 1552 1552 1551 1551 1551 1551 1551 1550 1549 1548 1548 1547 1546 1545 1545 1544 1543
1525 1528 1530 1533 1535 1537 1540 1542 1543 1545 1547 1548 1549 1550 1551 1552 1552 1552 1552 1553 1553 1553 1553 1552 1552 1552 1552 1551 1551 1550 1550 1550 1550 1549 1548 1547 1546 1546 1545 1544 1543 1542 1541
1524 1526 1529 1532 1534 1537 1539 1541 1543 1544 1546 1547 1548 1549 1550 1551 1551 1552 1552 1552 1552 1552 1552 1552 1552 1551 1551 1551 1550 1550 1550 1549 1549 1548 1547 1546 1545 1544 1543 1542 1541 1540 1539
1523 1525 1528 1531 1533 1536 1538 1540 1542 1544 1545 1546 1547 1548 1549 1550 1551 1551 1551 1551 1551 1551 1551 1551 1551 1551 1550 1550 1549 1549 1548 1548 1547 1546 1545 1544 1543 1542 1541 1540 1539 1538 1537
1522 1524 1527 1530 1532 1534 1537 1539 1541 1543 1544 1545 1546 1547 1548 1549 1549 1550 1550 1550 1550 1550 1550 1550 1550 1550 1549 1549 1548 1548 1547 1546 1546 1544 1543 1542 1541 1540 1539 1538 1537 1536 1534
1520 1523 1526 1528 1531 1533 1536 1538 1540 1541 1543 1544 1545 1546 1547 1548 1548 1548 1549 1549 1549 1549 1549 1549 1549 1548 1548 1547 1547 1546 1545 1545 1544 1543 1541 1540 1539 1538 1537 1536 1534 1533 1532
1519 1521 1524 1527 1529 1532 1534 1536 1538 1540 1541 1543 1544 1545 1545 1546 1547 1547 1547 1547 1547 1547 1547 1547 1547 1547 1546 1546 1545 1544 1543 1542 1541 1540 1539 1538 1537 1535 1534 1533 1531 1530 1528
1517 1520 1522 1525 1528 1530 1533 1535 1537 1538 1540 1541 1542 1543 1543 1544 1545 1545 1546 1546 1546 1546 1545 1545 1545 1545 1544 1544 1543 1542 1541 1540 1539 1538 1537 1535 1534 1533 1531 1530 1528 1526 1525
1515 1518 1520 1523 1526 1528 1531 1533 1535 1536 1538 1539 1540 1541 1541 1542 1543 1543 1544 1544 1544 1544 1544 1543 1543 1543 1542 1541 1541 1539 1538 1537 1536 1535 1534 1533 1531 1530 1528 1527 1525 1523 1521
1513 1515 1518 1521 1524 1526 1528 1530 1532 1534 1536 1537 1538 1539 1540 1540 1541 1541 1541 1542 1542 1542 1541 1541 1541 1540 1540 1539 1538 1537 1536 1535 1533 1532 1531 1530 1528 1527 1525 1524 1522 1520 1518
1510 1513 1515 1518 1521 1523 1526 1528 1530 1531 1533 1534 1535 1537 1537 1538 1538 1539 1539 1539 1539 1539 1539 1539 1538 1538 1537 1536 1535 1534 1533 1532 1530 1529 1528 1527 1525 1524 1522 1520 1518 1516 1514
1506 1509 1512 1515 1518 1520 1523 1525 1527 1529 1530 1532 1533 1534 1535 1535 1536 1536 1537 1537 1537 1537 1537 1536 1536 1535 1534 1534 1533 1532 1531 1531 1528 1526 1525 1523 1522 1521 1519 1517 1515 1513 1511
1502 1505 1508 1511 1514 1517 1519 1522 1524 1526 1528 1529 1530 1531 1532 1533 1533 1534 1534 1534 1534 1534 1534 1533 1533 1532 1532 1531 1531 1531 1530 1528 1526 1524 1522 1521 1519 1517 1516 1514 1512 1510 1508
1499 1502 1505 1508 1511 1513 1516 1518 1521 1522 1524 1525 1527 1528 1529 1530 1530 1531 1531 1531 1531 1531 1531 1530 1530 1530 1529 1528 1528 1527 1528 1526 1525 1521 1519 1518 1516 1514 1512 1510 1508 1506 1504
1495 1498 1501 1504 1507 1510 1512 1515 1518 1520 1522 1523 1524 1525 1526 1527 1527 1528 1528 1528 1528 1528 1528 1527 1527 1527 1526 1525 1525 1524 1524 1523 1522 1520 1516 1514 1513 1511 1509 1507 1505 1503 1500
1492 1495 1497 1500 1503 1506 1509 1512 1514 1516 1518 1519 1521 1522 1523 1524 1524 1525 1525 1525 1525 1525 1525 1524 1524 1523 1523 1522 1522 1521 1520 1519 1518 1517 1514 1511 1508 1507 1505 1503 1501 1499 1497